Preview of NWS' New Version of Forecast
This preview is not operational and should not be used for support decisions.

Regional Weather Roundup (RWR)

Issued by National Weather Service (NWS)

                            
000
ASUS43 KTOP 171708
RWRKS 

WEATHER ROUNDUP FOR KANSAS
NATIONAL WEATHER SERVICE GOODLAND KS
1200 PM CDT SAT AUG 17 2019

NOTE:  "FAIR" INDICATES FEW OR NO CLOUDS BELOW 12,000 FEET WITH NO
SIGNIFICANT WEATHER AND/OR OBSTRUCTIONS TO VISIBILITY.

KSZ001>006-013>018-027>032-041>047-171800-
NORTHWEST KANSAS
  
CITY           SKY/WX    TMP DP  RH WIND       PRES   REMARKS
GOODLAND       SUNNY     81  64  56 SW9G21    29.86S                  
HAYS           SUNNY     85  68  56 S20       29.83F                  
HILL CITY      SUNNY     86  66  51 S13G23    29.83F                  
RUSSELL        SUNNY     84  68  58 S21       29.82F                  
$$

KSZ061>065-074>080-084>089-171800-
SOUTHWEST KANSAS
  
CITY           SKY/WX    TMP DP  RH WIND       PRES   REMARKS
DODGE CITY     SUNNY     89  65  44 S20G30    29.84S                  
ELKHART        SUNNY     86  62  44 NW6       29.89S                  
GARDEN CITY    SUNNY     84  62  47 S13G33    29.84F                  
GREAT BEND     SUNNY     83  68  60 SE16      29.83F                  
LIBERAL        SUNNY     87  62  43 S10       29.85F                  
PRATT          SUNNY     84  67  55 SE18G26   29.85R                  
$$

KSZ066>073-081>083-090>101-171800-
SOUTHEAST KANSAS
  
CITY           SKY/WX    TMP DP  RH WIND       PRES   REMARKS
CHANUTE        SUNNY     81  70  69 S12       29.86F                  
COFFEYVILLE    LGT RAIN  70  67  90 S16G24    29.87F                  
HUTCHINSON     MOSUNNY   82  69  64 SE18G28   29.82S                  
MEDICINE LODGE   N/A     83  70  64 SE9G22    29.83R                  
NEWTON         MOSUNNY   74  69  85 W8G29     29.86F                  
PARSONS        SUNNY     76  70  82 S8        29.87F                  
WICHITA INTL   TSTM      79  68  69 S23       29.82F                  
WICHITA JABRA  MOSUNNY   76  69  79 SE9       29.88R                  
WICHITA MCCONL CLOUDY    78  67  68 S9        29.89                   
WINFIELD       SUNNY     78  69  73 SE16G28   29.86F                  
$$

KSZ007>012-019>026-033>040-048>060-102>105-171800-
NORTHEAST KANSAS
  
CITY           SKY/WX    TMP DP  RH WIND       PRES   REMARKS
CONCORDIA      SUNNY     81  70  69 S13G22    29.83S                  
EMPORIA        SUNNY     80  71  74 S18G29    29.85F                  
LAWRENCE       MOSUNNY   81  70  69 S14G24    29.86F                  
MANHATTAN      MOSUNNY   82  69  64 SE9       29.84F                  
MARYSVILLE     SUNNY     79  70  73 S15       29.84S                  
OLATHE IND     MOSUNNY   76  69  79 S14G23    29.89S                  
OLATHE EXE     SUNNY     76  70  82 S16G22    29.88F                  
SALINA         MOSUNNY   79  67  66 SE10      29.83S                  
TOPEKA BILLARD MOSUNNY   79  68  69 S14G23    29.86F                  
TOPEKA FORBES  SUNNY     81  70  69 S15       29.85F                  
$$